Location: Proctor
(47.8934°N, 114.3048°W)
Time: 20:43:13
(UTC+00:00)

Transit 4A - All Passes

Search period start: 23 June 2024 00:00
Search period end: 03 July 2024 00:00
Orbit: 871 x 972 km, 66.8° (Epoch: 23 June)

Date Brightness Start Highest point End Pass type
(mag) Time Alt. Az. Time Alt. Az. Time Alt. Az.
23 Jun - 05:04:14 10° S 05:09:28 35° ESE 05:14:42 10° NE visible
23 Jun - 06:50:01 10° WSW 06:55:38 48° NW 07:01:18 10° NNE visible
23 Jun - 08:39:49 10° WNW 08:43:27 17° NNW 08:47:08 10° NNE visible
23 Jun - 10:30:16 10° NNW 10:32:27 12° N 10:34:38 10° NNE visible
23 Jun - 12:16:36 10° NNW 12:21:10 22° NNE 12:25:47 10° E daylight
23 Jun - 14:02:29 10° NNW 14:08:26 78° NE 14:14:31 10° SE daylight
23 Jun - 15:49:50 10° WNW 15:54:10 21° WSW 15:58:34 10° SSW daylight
24 Jun - 05:12:43 10° S 05:18:20 51° ESE 05:23:57 10° NE visible
24 Jun - 06:59:30 10° WSW 07:04:51 36° NW 07:10:15 10° NNE visible
24 Jun - 08:49:54 10° NW 08:53:00 14° NNW 08:56:06 10° NNE visible
24 Jun - 10:39:31 10° NNW 10:42:04 13° N 10:44:38 10° NE visible
24 Jun - 12:25:31 10° NNW 12:30:32 28° NE 12:35:38 10° E daylight
24 Jun - 14:11:32 10° NW 14:17:29 78° WSW 14:23:33 10° SSE daylight
24 Jun - 15:59:50 10° WNW 16:02:52 14° WSW 16:05:57 10° SW daylight
25 Jun - 03:39:42 10° SE 03:41:59 12° ESE 03:44:17 10° ENE daylight
25 Jun - 05:21:28 10° SSW 05:27:16 73° ESE 05:33:05 10° NE visible
25 Jun - 07:09:09 10° W 07:14:09 28° NW 07:19:10 10° NNE visible
25 Jun - 09:00:01 10° NW 09:02:34 13° NNW 09:05:10 10° NNE visible
25 Jun - 10:48:35 10° NNW 10:51:39 14° NNE 10:54:46 10° NE visible
25 Jun - 12:34:25 10° NNW 12:39:50 35° NE 12:45:20 10° ESE daylight
25 Jun - 14:20:39 10° NW 14:26:26 56° WSW 14:32:21 10° SSE daylight
26 Jun - 03:46:44 10° SSE 03:50:40 19° ESE 03:54:37 10° ENE daylight
26 Jun - 05:30:27 10° SW 05:36:17 82° NW 05:42:09 10° NNE visible
26 Jun - 07:18:58 10° W 07:23:30 23° NNW 07:28:05 10° NNE visible
26 Jun - 09:10:01 10° NNW 09:12:12 12° N 09:14:25 10° NNE visible
26 Jun - 10:57:33 10° NNW 11:01:12 16° NNE 11:04:53 10° ENE visible
26 Jun - 12:43:21 10° NNW 12:49:03 46° NE 12:54:53 10° ESE daylight
26 Jun - 14:29:51 10° NW 14:35:20 39° WSW 14:40:55 10° S daylight
27 Jun - 03:54:36 10° SSE 03:59:25 28° ESE 04:04:15 10° NE daylight
27 Jun - 05:39:37 10° SW 05:45:22 60° NW 05:51:09 10° NNE visible
27 Jun - 07:28:54 10° WNW 07:32:56 19° NNW 07:37:00 10° NNE visible
27 Jun - 09:19:45 10° NNW 09:21:50 12° N 09:23:56 10° NNE visible
27 Jun - 11:06:29 10° NNW 11:10:41 20° NNE 11:14:57 10° ENE daylight
27 Jun - 12:52:19 10° NNW 12:58:13 63° NE 13:04:14 10° SE daylight
27 Jun - 14:39:13 10° NW 14:44:09 27° WSW 14:49:10 10° SSW daylight
28 Jun - 04:02:52 10° S 04:08:15 39° ESE 04:13:37 10° NE daylight
28 Jun - 05:48:59 10° WSW 05:54:32 44° NW 06:00:07 10° NNE visible
28 Jun - 07:38:57 10° WNW 07:42:26 16° NNW 07:45:57 10° NNE visible
28 Jun - 09:29:10 10° NNW 09:31:28 12° N 09:33:46 10° NNE visible
28 Jun - 11:15:23 10° NNW 11:20:06 24° NNE 11:24:54 10° E daylight
28 Jun - 13:01:19 10° NW 13:07:17 85° NE 13:13:23 10° SE daylight
28 Jun - 14:48:52 10° WNW 14:52:55 19° WSW 14:57:01 10° SSW daylight
29 Jun - 04:11:27 10° SSW 04:17:08 57° ESE 04:22:50 10° NE visible
29 Jun - 05:58:31 10° WSW 06:03:45 34° NW 06:09:03 10° NNE visible
29 Jun - 07:49:04 10° NW 07:51:59 14° NNW 07:54:56 10° NNE visible
29 Jun - 09:38:21 10° NNW 09:41:05 13° NNE 09:43:49 10° NE visible
29 Jun - 11:24:17 10° NNW 11:29:28 30° NE 11:34:43 10° E daylight
29 Jun - 13:10:22 10° NW 13:16:18 71° WSW 13:22:22 10° SSE daylight
29 Jun - 14:59:10 10° WNW 15:01:36 13° WSW 15:04:04 10° SW daylight
30 Jun - 02:37:47 10° SE 02:40:43 14° ESE 02:43:38 10° ENE daylight
30 Jun - 04:20:16 10° SSW 04:26:05 80° ESE 04:31:56 10° NE visible
30 Jun - 06:08:13 10° W 06:13:04 27° NW 06:17:58 10° NNE visible
30 Jun - 07:59:08 10° NW 08:01:35 13° N 08:04:03 10° NNE visible
30 Jun - 09:47:23 10° NNW 09:50:39 15° NNE 09:53:57 10° NE visible
30 Jun - 11:33:13 10° NNW 11:38:44 38° NE 11:44:21 10° ESE daylight
30 Jun - 13:19:30 10° NW 13:25:14 50° WSW 13:31:06 10° S daylight
01 Jul - 02:45:10 10° SSE 02:49:25 21° ESE 02:53:39 10° ENE daylight
01 Jul - 04:29:18 10° SW 04:35:07 75° NW 04:40:59 10° NNE visible
01 Jul - 06:18:04 10° W 06:22:27 21° NNW 06:26:53 10° NNE visible
01 Jul - 08:09:04 10° NNW 08:11:13 12° N 08:13:22 10° NNE visible
01 Jul - 09:56:21 10° NNW 10:00:11 17° NNE 10:04:04 10° ENE visible
01 Jul - 11:42:09 10° NNW 11:47:56 51° NE 11:53:51 10° SE daylight
01 Jul - 13:28:46 10° NW 13:34:07 35° WSW 13:39:35 10° S daylight
02 Jul - 02:53:10 10° S 02:58:10 31° ESE 03:03:12 10° NE daylight
02 Jul - 04:38:32 10° SW 04:44:14 54° NW 04:49:58 10° NNE visible
02 Jul - 06:28:02 10° WNW 06:31:54 18° NNW 06:35:48 10° NNE visible
02 Jul - 08:18:42 10° NNW 08:20:51 12° N 08:23:00 10° NNE visible
02 Jul - 10:05:16 10° NNW 10:09:39 21° NNE 10:14:06 10° ENE visible
02 Jul - 11:51:07 10° NNW 11:57:04 69° NE 12:03:09 10° SE daylight
02 Jul - 13:38:11 10° NW 13:42:55 25° WSW 13:47:44 10° SSW daylight
